Regional Weather Roundup
Issued by NWS

Home | Current Version | Previous Version | Graphics & Text | Print | Product List | Glossary Off
Versions: 1 2 3 4 5 6 7 8 9 10 11 12 13 14 15 16 17 18 19 20 21 22 23 24 25 26 27 28 29 30 31 32 33 34 35 36 37 38 39 40 41 42 43 44 45 46 47 48 49 50

000
ASUS43 KLSX 230807
RWRMO

WEATHER SUMMARY FOR MISSOURI
NATIONAL WEATHER SERVICE SPRINGFIELD MO
200 AM CST TUE JAN 23 2018

NOTE: "FAIR" INDICATES FEW OR NO CLOUDS BELOW 12,000 FEET WITH NO
       SIGNIFICANT WEATHER AND/OR OBSTRUCTIONS TO VISIBILITY.
       CURRENT SKY AND/OR WEATHER CONDITIONS ARE NOT AVAILABLE FOR
       CHILLICOTHE AND FARMINGTON.

MOZ001>031-035>038-043-044-053-054-230900-
...NORTHERN AND WESTERN MISSOURI...

CITY           SKY/WX    TMP DP  RH WIND       PRES   REMARKS
KANSAS CTY INT CLOUDY    30  26  85 NW16G24   29.90R WCI  19
KANSAS C DTWN  CLOUDY    33  26  75 W16G26    29.91R WCI  23
LEE`S SUMMIT   CLOUDY    31  27  85 NW18G29   29.90R WCI  19
ST JOSEPH      CLOUDY    31  28  89 NW21G30   29.92R WCI  18
CHILLICOTHE      N/A     32  27  81 NW10G24   29.82R WCI  24
KIRKSVILLE     CLOUDY    32  30  92 NW20G25   29.72R WCI  20

$$
MOZ066>068-077>081-088>096-101>105-230900-
...SOUTHWEST MISSOURI...

CITY           SKY/WX    TMP DP  RH WIND       PRES   REMARKS
SPRINGFIELD    CLOUDY    32  25  75 NW20G33   29.90R WCI  20
JOPLIN         CLOUDY    34  28  79 NW14      29.98R WCI  25
BRANSON        CLOUDY    34  25  69 W17G30    29.92R WCI  23

$$
MOZ032>034-039>042-045>050-055>058-069>072-230900-
...CENTRAL MISSOURI...

CITY           SKY/WX    TMP DP  RH WIND       PRES   REMARKS
COLUMBIA       CLOUDY    34  29  82 W22G30    29.76R WCI  22
JEFFERSON CITY CLOUDY    35  29  78 W23G36    29.80R WCI  23
ROLLA          CLOUDY    33  29  85 W21G39    29.77R WCI  21
SEDALIA        CLOUDY    34  30  85 W22G28    29.83R WCI  22
WHITEMAN AFB   CLOUDY    33  27  78 NW21      29.82R WCI  21
WARRENSBURG    CLOUDY    32  28  86 W14G21    29.87R WCI  22
OSAGE BEACH    CLOUDY    33  28  81 W13G25    29.85R WCI  24

$$
MOZ051-052-059>065-230900-
...EAST CENTRAL MISSOURI...

CITY           SKY/WX    TMP DP  RH WIND       PRES   REMARKS
ST LOUIS INTL  FLURRIES  36  33  89 W22       29.68R WCI  25
SPIRIT OF STL  CLOUDY    36  33  89 SW21G29   29.70R WCI  25
ST CHARLES     CLOUDY    36  33  89 W17G25    29.68R WCI  26

$$
MOZ072>076-082>087-097>100-106>115-230900-
...SOUTH CENTRAL AND SOUTHEAST MISSOURI...

CITY           SKY/WX    TMP DP  RH WIND       PRES   REMARKS
CAPE GIRARDEAU CLOUDY    39  31  72 W12       29.79R
FARMINGTON     CLOUDY    35  28  75 W17G26    29.77R WCI  25
POPLAR BLUFF   CLOUDY    41  27  57 W17G28    29.83R
WEST PLAINS    CLOUDY    34  27  75 W13G25    29.84R WCI  25

$$


USA.gov is the U.S. government's official web portal to all federal, state and local government web resources and services.